User: anonymous   Login
Location: ?????
(55.6500°N, 37.2500°E)
Time: 15:34:50
(UTC+00:00)
Language:

Meteor 1-18 Rocket - Orbit

View from above orbital plane
View from above orbital plane
View from above satellite
View from above satellite

Ground track
Ground track

The orbit data is extracted from the following two-line orbital elements,

1 07364U 74052B   25199.64980270  .00000113  00000-0  60226-4 0  9995
2 07364  81.2319 167.8460 0050026 123.4893 237.1071 14.06392674616186
Epoch (UTC): 18 July 2025 15:35:42
Eccentricity: 0.0050026
inclination: 81.2319°
perigee height: 835 km
apogee height: 908 km
right ascension of ascending node: 167.8460°
argument of perigee: 123.4893°
revolutions per day: 14.06392674
mean anomaly at epoch: 237.1071°
orbit number at epoch: 61618

The dashed part of the orbit path shows where the satellite is in the earth's shadow,  

DLR